SQ5OUZ-1 Weather Reports


time (UTC)temp
C
wind
direction
speed
KPH
gust
KPH
rain 1hr
cm
rain 24hr
cm
rain mn
cm
humidity
%
barometer
mb
20260508054041 11 0 0.0 0.0 0.00 0.00 0.00 80 1017.2
20260508052538 11 0 0.0 0.0 0.00 0.00 0.00 82 1017.1
20260508051035 10 0 0.0 0.0 0.00 0.00 0.00 83 1017.1
20260508045532 10 0 0.0 0.0 0.00 0.00 0.00 85 1017.0
20260508044028 10 0 0.0 0.0 0.00 0.00 0.00 88 1016.9
20260508042525 10 0 0.0 0.0 0.00 0.00 0.00 88 1016.9
20260508041022 10 0 0.0 0.0 0.00 0.00 0.00 89 1016.8
20260508035518 10 0 0.0 0.0 0.00 0.00 0.00 88 1016.7
20260508034015 10 0 0.0 0.0 0.00 0.00 0.00 86 1016.7
20260508032512 10 0 0.0 0.0 0.00 0.00 0.00 84 1016.4
20260508031009 11 0 0.0 0.0 0.00 0.00 0.00 81 1016.4
20260508025505 11 0 0.0 0.0 0.00 0.00 0.00 81 1016.4
20260508024002 11 0 0.0 0.0 0.00 0.00 0.00 81 1016.3
20260508022459 11 0 0.0 0.0 0.00 0.00 0.00 81 1016.4
20260508020956 11 0 0.0 0.0 0.00 0.00 0.00 81 1016.2
20260508015452 11 0 0.0 0.0 0.00 0.00 0.00 81 1016.0
20260508013949 11 0 0.0 0.0 0.00 0.00 0.00 81 1015.9
20260508012446 11 0 0.0 0.0 0.00 0.00 0.00 81 1015.9
20260508010942 11 0 0.0 0.0 0.00 0.00 0.00 81 1015.9
20260508005439 11 0 0.0 0.0 0.00 0.00 0.00 83 1015.9
20260508003936 11 0 0.0 0.0 0.00 0.00 0.00 83 1016.0
20260508002433 11 0 0.0 0.0 0.00 0.00 0.00 83 1015.9
20260508000929 11 0 0.0 0.0 0.00 0.00 0.00 83 1015.8
20260507235426 11 0 0.0 0.0 0.00 0.00 0.00 83 1015.8
20260507233923 11 0 0.0 0.0 0.00 0.00 0.00 83 1015.9
20260507232419 12 0 0.0 0.0 0.00 0.00 0.00 83 1016.1
20260507230916 12 0 0.0 0.0 0.00 0.00 0.00 82 1016.2
20260507225413 12 0 0.0 0.0 0.00 0.00 0.00 83 1016.1
20260507223910 12 0 0.0 0.0 0.00 0.00 0.00 84 1016.2
20260507222406 12 0 0.0 0.0 0.00 0.00 0.00 84 1016.0
20260507220903 12 0 0.0 0.0 0.00 0.00 0.00 84 1015.8
20260507215400 12 0 0.0 0.0 0.00 0.00 0.00 84 1015.6
20260507213857 12 0 0.0 0.0 0.00 0.00 0.00 85 1015.4
20260507212353 12 0 0.0 0.0 0.00 0.00 0.00 86 1015.3
20260507210850 12 0 0.0 0.0 0.00 0.00 0.00 86 1015.3
20260507205347 13 0 0.0 0.0 0.00 0.00 0.00 85 1014.8
20260507203844 13 0 0.0 0.0 0.00 0.00 0.00 84 1014.9
20260507202340 13 0 0.0 0.0 0.00 0.00 0.00 83 1014.7
20260507200837 13 0 0.0 0.0 0.00 0.00 0.00 83 1014.7
20260507195334 13 0 0.0 0.0 0.00 0.00 0.00 82 1014.9
20260507193831 13 0 0.0 0.0 0.00 0.00 0.00 81 1015.1
20260507192327 13 0 0.0 0.0 0.00 0.00 0.00 81 1015.0
20260507190824 14 0 0.0 0.0 0.00 0.00 0.00 80 1014.9
20260507185321 14 0 0.0 0.0 0.00 0.00 0.00 80 1014.8
20260507183818 14 0 0.0 0.0 0.00 0.00 0.00 77 1014.7
20260507182314 15 0 0.0 0.0 0.00 0.00 0.00 73 1014.6
20260507180811 16 0 0.0 0.0 0.00 0.00 0.00 68 1014.1
20260507175308 16 0 0.0 0.0 0.00 0.00 0.00 64 1013.8
20260507173805 16 0 0.0 0.0 0.00 0.00 0.00 63 1013.6
20260507172301 17 0 0.0 0.0 0.00 0.00 0.00 61 1013.3
20260507170758 17 0 0.0 0.0 0.00 0.00 0.00 60 1013.2
20260507164314 17 0 0.0 0.0 0.00 0.00 0.00 59 1012.7
20260507162811 18 0 0.0 0.0 0.00 0.00 0.00 57 1012.8
20260507161307 18 0 0.0 0.0 0.00 0.00 0.00 57 1012.8
20260507155804 18 0 0.0 0.0 0.00 0.00 0.00 56 1012.8
20260507154301 18 0 0.0 0.0 0.00 0.00 0.00 56 1012.7
20260507152758 18 0 0.0 0.0 0.00 0.00 0.00 57 1012.7
20260507151254 18 0 0.0 0.0 0.00 0.00 0.00 56 1012.8
20260507145751 19 0 0.0 0.0 0.00 0.00 0.00 56 1012.8
20260507144248 19 0 0.0 0.0 0.00 0.00 0.00 56 1012.9
20260507142745 19 0 0.0 0.0 0.00 0.00 0.00 55 1012.8
20260507141241 19 0 0.0 0.0 0.00 0.00 0.00 56 1012.7
20260507135738 19 0 0.0 0.0 0.00 0.00 0.00 56 1012.6
20260507134235 19 0 0.0 0.0 0.00 0.00 0.00 56 1012.6
20260507132731 19 0 0.0 0.0 0.00 0.00 0.00 55 1012.6
20260507131228 18 0 0.0 0.0 0.00 0.00 0.00 57 1012.7
20260507125725 20 0 0.0 0.0 0.00 0.00 0.00 53 1012.6
20260507124221 21 0 0.0 0.0 0.00 0.00 0.00 53 1012.4
20260507122718 21 0 0.0 0.0 0.00 0.00 0.00 53 1012.2
20260507121215 20 0 0.0 0.0 0.00 0.00 0.00 56 1012.3
20260507115712 20 0 0.0 0.0 0.00 0.00 0.00 55 1012.2
20260507114209 20 0 0.0 0.0 0.00 0.00 0.00 58 1012.1
20260507112705 20 0 0.0 0.0 0.00 0.00 0.00 57 1012.0
20260507111202 20 0 0.0 0.0 0.00 0.00 0.00 56 1011.8
20260507105659 20 0 0.0 0.0 0.00 0.00 0.00 55 1011.6
20260507104156 21 0 0.0 0.0 0.00 0.00 0.00 53 1011.3
20260507102652 22 0 0.0 0.0 0.00 0.00 0.00 50 1011.0
20260507101149 22 0 0.0 0.0 0.00 0.00 0.00 49 1010.7
20260507095637 23 0 0.0 0.0 0.00 0.00 0.00 47 1010.6
20260507094132 22 0 0.0 0.0 0.00 0.00 0.00 45 1010.5
20260507092629 23 0 0.0 0.0 0.00 0.00 0.00 43 1010.3
20260507091126 25 0 0.0 0.0 0.00 0.00 0.00 40 1010.2
20260507085623 27 0 0.0 0.0 0.00 0.00 0.00 35 1009.9
20260507084119 26 0 0.0 0.0 0.00 0.00 0.00 37 1009.9
20260507082616 28 0 0.0 0.0 0.00 0.00 0.00 33 1009.7
20260507081113 28 0 0.0 0.0 0.00 0.00 0.00 33 1009.5
20260507075610 28 0 0.0 0.0 0.00 0.00 0.00 32 1009.5
20260507074106 30 0 0.0 0.0 0.00 0.00 0.00 31 1009.4
20260507072603 30 0 0.0 0.0 0.00 0.00 0.00 30 1009.3
20260507071100 29 0 0.0 0.0 0.00 0.00 0.00 31 1009.1
20260507065557 28 0 0.0 0.0 0.00 0.00 0.00 32 1009.0
20260507064053 28 0 0.0 0.0 0.00 0.00 0.00 33 1008.8
20260507062550 28 0 0.0 0.0 0.00 0.00 0.00 33 1008.8
20260507061047 27 0 0.0 0.0 0.00 0.00 0.00 34 1008.8
20260507055544 27 0 0.0 0.0 0.00 0.00 0.00 37 1008.7